PDT,Max TemperatureF,Mean TemperatureF,Min TemperatureF,Max Dew PointF,MeanDew PointF,Min DewpointF,Max Humidity, Mean Humidity, Min Humidity, Max Sea Level PressureIn, Mean Sea Level PressureIn, Min Sea Level PressureIn, Max VisibilityMiles, Mean VisibilityMiles, Min VisibilityMiles, Max Wind SpeedMPH, Mean Wind SpeedMPH, Max Gust SpeedMPH,PrecipitationIn, CloudCover, Events, WindDirDegrees
2013-6-1,91,76,60,48,44,37,52,32,17,29.93,29.88,29.81,10,10,10,10,5,,0.00,0,,164
2013-6-2,91,78,64,54,48,45,52,36,20,29.81,29.74,29.69,10,10,5,9,5,,0.00,0,,150
2013-6-3,91,78,64,55,51,45,64,41,23,29.82,29.76,29.71,10,10,5,9,3,,0.00,0,,221
2013-6-4,82,72,62,55,55,54,77,54,39,29.90,29.87,29.80,10,10,10,9,5,,0.00,0,,170
2013-6-5,86,72,57,57,54,46,77,54,35,29.98,29.93,29.89,10,10,10,10,6,17,0.00,0,,177
2013-6-6,89,74,60,63,57,52,83,54,33,29.93,29.89,29.85,10,10,9,9,4,,0.00,0,,236
2013-6-7,100,82,64,63,55,46,83,41,16,29.89,29.84,29.78,10,10,10,10,2,,0.00,0,,305
2013-6-8,105,89,73,63,55,46,48,32,19,29.79,29.76,29.71,10,10,9,10,4,,0.00,0,,275
2013-6-9,80,72,62,63,55,52,68,51,39,29.86,29.81,29.75,10,10,10,15,8,23,0.00,0,,164
2013-6-10,71,62,53,55,52,48,94,70,46,29.96,29.90,29.81,10,10,7,16,7,18,0.02,1,,180
2013-6-11,82,68,53,54,52,48,82,44,34,30.00,29.94,29.91,10,10,9,12,5,,0.00,0,,213
2013-6-12,82,70,57,54,48,39,82,47,21,29.97,29.94,29.90,10,10,8,10,4,16,0.00,0,,180
2013-6-13,80,66,53,46,39,27,67,37,14,30.08,30.03,29.96,10,10,10,9,4,,0.00,0,,240
2013-6-14,84,66,48,45,38,32,58,32,19,30.01,29.91,29.85,10,10,10,8,3,,0.00,0,,242
2013-6-15,86,74,62,46,41,32,49,32,14,29.96,29.90,29.84,10,10,10,10,7,,0.00,0,,148
2013-6-16,87,73,59,52,42,36,50,33,17,30.06,30.02,29.95,10,10,10,13,7,,0.00,0,,209
2013-6-17,84,73,62,54,46,41,68,40,23,30.06,30.03,29.98,10,10,10,13,7,16,0.00,0,,161
2013-6-18,75,64,53,52,48,43,88,60,33,30.00,29.96,29.91,10,10,10,14,9,22,0.00,0,,175
2013-6-19,73,60,48,46,40,27,87,48,18,30.04,30.01,29.96,10,10,10,10,6,22,0.00,0,,220
2013-6-20,80,66,53,45,38,32,54,36,18,30.00,29.96,29.94,10,10,10,10,3,,0.00,0,,248
2013-6-21,84,68,53,46,40,36,54,33,20,29.97,29.95,29.92,10,10,10,12,5,16,0.00,0,,280
2013-6-22,87,72,57,46,42,32,59,33,14,29.93,29.89,29.85,10,10,10,12,3,16,0.00,0,,247
2013-6-23,73,66,60,57,51,41,82,60,35,29.87,29.83,29.79,10,10,10,14,9,20,0.00,3,,158
2013-6-24,62,60,57,61,58,55,100,92,82,29.94,29.88,29.80,10,7,1,10,7,,0.46,7,,165
2013-6-25,69,64,59,66,62,57,100,95,83,30.03,29.98,29.91,10,7,0,12,6,20,0.45,8,,153
2013-6-26,84,73,62,64,62,57,100,72,45,30.08,30.04,30.00,10,10,10,9,4,,0.00,1,,174
2013-6-27,93,80,66,66,61,57,88,59,30,30.12,30.08,30.05,10,10,8,10,5,,0.00,0,,290
2013-6-28,98,83,68,63,58,48,78,46,18,30.07,30.01,29.94,10,10,10,8,2,,0.00,0,,244
2013-6-29,102,88,73,63,56,50,53,36,18,29.97,29.92,29.85,10,10,10,13,7,,0.00,0,,353
2013-6-30,102,88,73,61,57,50,57,37,19,29.88,29.85,29.81,10,10,9,8,5,,0.00,0,,140